Temperature
28 28 28 29 30 30 31 31 31 32 33 32 31 30 31 31 31 30 30 29 28 27 26 25 24 23 22 22 21 21 21 21 20 20 20 19 19 19 18 18 18 18 18 18
28 28 29 30 31 30 30 30 31 31 32 32 30 30 31 31 31 31 30 29 28 27 26 25 24 23 22 22 21 21 21 21 20 20 20 19 19 19 18 18 18 18 18 18
28 29 30 30 30 30 30 30 30 31 31 32 31 29 30 31 31 30 30 29 28 27 26 25 24 23 22 22 21 21 21 20 20 20 20 19 19 18 18 18 18 18 18 18
29 30 30 29 29 30 29 30 30 30 30 30 30 28 29 30 30 31 30 29 28 27 26 25 24 23 23 22 21 21 21 20 20 20 19 19 19 18 18 18 18 18 18 17
28 29 29 29 30 30 30 31 30 30 30 29 29 29 29 30 29 30 30 29 28 27 26 25 25 24 23 22 21 21 21 20 20 20 19 19 18 18 18 18 18 18 17 17
29 30 30 30 30 30 30 30 30 30 29 27 28 28 29 30 30 30 30 29 28 27 26 25 25 24 23 22 21 21 20 20 20 20 19 19 18 18 18 18 18 17 17 17
28 29 30 30 29 30 29 28 27 26 26 27 29 29 28 30 31 30 30 29 28 27 26 25 25 24 23 22 22 21 20 20 20 19 19 19 18 18 18 18 18 17 17 17
27 27 29 29 29 28 28 28 26 25 26 27 29 28 29 30 30 30 29 28 27 27 26 25 24 23 23 22 21 21 20 20 19 19 19 19 18 18 18 18 17 17 17 17
27 27 29 29 29 29 28 28 29 28 27 27 28 28 29 30 30 29 29 28 27 27 26 25 24 23 22 22 21 21 20 19 19 19 19 19 18 18 18 17 17 17 17 17
27 26 28 29 29 29 29 29 28 27 26 26 27 28 28 28 29 29 29 28 27 26 25 24 23 23 22 21 21 20 20 19 19 18 18 18 18 18 18 17 17 17 17 17
27 26 27 28 27 27 28 28 27 27 27 26 26 26 28 28 28 28 28 28 27 26 25 24 23 22 21 21 20 20 19 19 18 18 18 18 18 18 17 17 17 17 17 17
27 26 25 26 28 29 28 27 27 26 26 26 26 26 28 28 28 28 28 27 26 25 24 23 22 21 21 20 20 19 19 18 18 18 18 18 17 17 17 17 17 17 17 16
25 24 24 25 26 27 27 27 27 27 27 26 25 25 27 27 27 27 27 26 26 25 23 22 21 21 20 20 19 19 19 18 18 18 17 17 17 17 17 17 17 17 16 16
25 24 24 24 25 26 25 26 27 26 26 26 26 25 26 26 26 26 26 25 25 24 23 22 21 20 20 19 19 19 18 18 18 17 17 17 17 17 17 17 16 16 16 16
24 23 24 25 25 26 25 26 26 26 26 26 26 25 25 25 25 25 25 24 24 23 22 21 20 19 19 19 18 18 18 18 17 17 17 16 16 16 16 16 16 16 16 16
23 22 23 24 25 25 25 26 26 26 26 26 26 25 26 25 24 24 24 23 23 22 21 20 20 19 19 18 18 18 18 17 17 17 17 16 16 16 16 16 16 15 15 15
22 21 22 22 24 24 24 25 25 26 26 26 25 24 25 24 23 23 23 22 22 21 20 20 19 19 18 18 18 18 17 17 17 16 16 16 16 16 16 15 15 15 15 15
21 21 21 22 23 21 24 25 25 25 25 25 25 25 24 23 22 22 21 21 20 20 19 19 18 18 18 17 17 17 17 17 17 16 16 16 16 16 15 15 15 15 15 15
22 21 20 21 21 22 23 24 24 24 23 24 24 24 23 22 22 21 21 20 20 19 19 18 18 17 17 17 17 17 16 16 16 16 16 15 15 15 15 15 15 14 14 14
22 21 20 20 20 20 21 23 24 24 22 23 23 22 22 22 22 21 20 19 19 18 18 17 17 17 17 16 16 16 16 16 16 15 15 15 15 15 15 14 14 14 14 14
20 20 20 20 20 20 22 22 23 21 21 21 22 21 21 20 20 19 18 18 18 17 17 17 16 16 16 16 16 15 15 15 15 15 15 15 15 15 14 14 14 14 14 14
20 19 19 19 19 19 21 21 20 19 20 20 20 20 19 18 18 18 17 17 17 17 16 16 16 16 15 15 15 15 15 15 15 15 15 15 14 14 14 14 14 14 14 14
20 19 19 19 19 19 19 18 18 19 19 19 19 18 18 18 18 17 17 17 16 16 16 15 15 15 15 15 15 15 15 14 14 14 14 14 14 14 14 14 14 14 14 14
20 20 19 18 19 18 18 18 17 18 18 18 18 18 17 18 17 17 16 16 15 15 15 15 14 14 14 14 14 14 14 14 14 14 14 14 14 14 14 13 14 14 14 14
19 19 18 18 18 18 17 17 17 17 17 17 17 17 17 17 16 16 16 15 15 15 14 14 14 14 14 14 14 14 14 14 14 13 13 13 13 13 13 13 14 14 14 14
18 17 17 17 17 17 16 16 16 16 16 17 17 16 16 16 16 15 15 15 14 14 14 14 14 13 13 13 13 13 13 13 13 13 13 13 13 13 13 13 13 14 14 14
Wind_Speed
14 13 14 15 16 16 16 15 12 10 9 9 10 9 8 9 10 10 10 9 8 9 10 11 11 11 11 10 9 8 7 6 5 3 3 3 3 2 2 2 3 3 2 1
14 17 16 15 15 15 17 16 14 11 9 8 9 10 10 11 10 9 9 9 10 9 9 11 11 11 11 11 10 9 8 7 6 4 3 3 3 3 3 2 3 3 2 2
17 13 14 16 15 15 16 15 14 12 9 9 9 11 12 12 10 9 8 8 9 10 11 11 12 12 12 12 11 9 8 7 6 6 4 3 2 2 2 3 3 2 3 3
15 16 14 15 15 15 14 13 14 14 13 10 11 11 11 10 10 10 9 8 8 9 11 12 12 12 12 13 11 9 9 8 7 6 5 5 4 3 2 2 3 3 3 3
14 15 15 15 15 14 14 12 13 14 14 13 13 12 10 11 11 10 9 8 7 7 9 9 11 12 11 12 12 10 9 8 7 6 5 4 3 3 2 2 3 3 2 2
16 14 14 14 13 13 12 12 14 14 12 15 14 13 11 9 10 9 9 7 7 6 7 8 9 10 10 11 11 11 10 8 7 7 6 4 3 2 2 2 3 3 2 2
17 17 15 13 13 13 12 11 9 10 11 13 14 13 8 5 5 8 8 7 7 7 8 8 9 9 9 10 10 10 11 9 8 7 6 5 4 4 3 3 2 2 1 2
15 15 15 13 14 12 13 14 12 10 10 10 12 11 7 5 4 6 7 7 7 7 8 8 7 7 7 8 8 8 9 9 8 7 6 4 4 4 3 2 2 2 1 1
10 13 13 15 14 15 15 15 16 15 15 11 9 8 7 8 7 5 7 8 8 7 8 8 7 7 7 7 7 8 8 7 7 7 7 6 5 3 2 2 2 1 1 2
13 11 12 12 12 16 17 14 11 12 11 12 9 8 6 9 9 7 6 7 7 8 8 7 6 7 7 7 7 7 7 7 6 6 6 6 5 4 3 2 2 2 1 1
12 10 11 11 13 14 14 15 12 10 11 11 10 4 1 6 7 6 6 5 7 9 9 8 7 7 7 7 7 7 6 6 5 5 4 4 4 4 3 3 2 2 2 1
9 8 11 12 12 12 13 14 13 10 10 11 10 5 3 2 5 5 5 5 6 8 8 8 7 6 6 6 6 6 6 6 5 5 4 4 4 3 3 3 2 2 2 1
6 6 9 11 12 13 12 13 13 13 11 11 12 6 2 3 3 4 4 5 6 7 7 7 7 6 5 5 5 5 5 5 5 5 5 4 4 3 3 3 3 2 2 1
5 8 11 12 9 9 12 14 13 13 11 11 12 7 2 2 1 3 4 4 6 7 7 6 6 5 5 5 4 4 4 4 5 5 4 4 3 3 3 3 3 3 2 2
5 10 13 14 13 11 12 13 13 14 13 11 9 7 3 1 1 2 3 3 5 6 6 6 5 5 5 5 4 4 4 4 4 4 4 3 3 3 3 3 3 2 2 2
5 8 11 15 15 13 14 14 14 14 13 13 10 6 2 3 2 3 3 3 3 3 4 5 5 5 5 4 4 4 4 4 4 4 4 3 3 3 3 3 3 3 2 2
7 7 11 13 14 13 15 13 13 11 10 10 8 4 2 2 3 3 2 2 2 1 3 3 4 4 4 4 3 3 4 4 4 4 4 4 4 4 3 3 3 2 2 2
8 8 8 11 11 14 9 6 7 8 7 7 5 3 1 2 3 3 3 3 3 2 2 2 2 2 3 4 3 3 3 4 4 3 3 4 4 4 3 3 2 2 2 2
8 7 7 9 11 10 6 4 5 6 6 4 2 1 1 1 2 3 4 4 4 4 4 3 2 2 2 3 3 3 3 3 4 3 3 3 4 4 3 3 2 2 2 2
9 7 8 9 10 9 6 5 5 6 6 1 0 1 1 2 3 1 5 6 5 4 4 2 2 2 2 2 3 3 3 3 4 4 4 3 3 3 3 3 2 2 2 3
10 9 11 12 11 7 4 5 5 6 2 2 1 1 1 2 1 2 4 5 5 4 3 2 2 2 2 2 3 3 2 3 2 2 3 3 2 2 3 3 2 2 3 3
7 7 9 10 10 7 3 4 2 2 3 3 3 3 3 2 3 3 4 4 4 3 2 2 2 2 1 2 3 3 2 1 1 2 2 2 2 3 3 2 2 3 3 4
5 3 3 3 3 2 4 4 4 3 3 3 2 2 2 1 3 3 3 3 3 2 2 1 2 1 1 1 2 2 1 2 2 1 1 2 2 2 2 3 3 4 4 4
3 2 3 3 2 2 4 4 4 2 1 1 0 1 0 1 2 2 2 2 2 2 1 1 1 1 1 1 1 1 1 1 1 2 2 2 3 3 2 2 2 3 2 2
4 3 4 5 3 3 4 4 3 3 3 2 1 1 1 1 1 1 1 1 1 1 1 0 1 1 1 1 1 0 1 1 2 2 2 2 3 2 2 1 1 1 0 1
4 3 4 4 3 4 5 4 4 3 3 2 1 1 1 1 2 1 1 1 1 1 1 0 0 1 1 1 1 0 0 1 1 2 2 3 3 3 3 3 2 3 2 3
Wind_Direction
217 228 232 228 231 245 259 264 261 242 223 220 225 233 236 228 207 209 198 187 184 185 170 158 157 155 151 147 148 152 157 153 153 160 171 175 170 173 151 142 140 156 172 168
225 228 236 242 243 245 255 262 266 261 240 228 227 235 235 240 219 211 198 192 188 184 167 157 158 159 157 157 157 160 163 159 164 167 176 177 173 176 160 141 149 168 176 185
228 233 233 240 243 242 249 257 264 264 257 243 241 241 238 235 223 205 201 198 191 182 174 167 167 165 165 165 166 170 166 163 173 172 174 170 169 183 160 155 162 176 179 175
236 238 236 236 242 243 247 252 261 265 264 253 241 247 236 222 212 205 193 190 184 182 175 176 172 168 169 169 168 164 162 168 172 173 179 180 179 179 168 166 157 168 182 180
235 232 236 237 239 242 252 257 258 258 260 262 250 248 239 215 206 204 188 186 179 181 176 174 175 171 170 169 169 166 165 168 169 177 178 185 192 184 165 165 154 176 185 181
246 240 236 242 244 244 253 259 259 254 253 251 248 250 243 221 206 189 174 171 163 170 167 170 171 163 170 169 165 166 165 167 170 174 182 185 191 188 174 187 175 183 172 170
238 239 232 235 242 235 237 245 248 242 237 241 237 241 237 214 197 175 164 161 159 162 161 159 161 162 168 167 162 162 162 165 168 172 181 181 190 198 206 201 188 182 170 160
233 233 223 226 237 235 228 233 237 244 246 246 234 231 218 171 163 154 154 152 151 161 148 144 159 159 158 156 151 151 157 162 169 172 175 182 193 206 209 209 197 182 171 150
240 239 226 221 227 239 234 236 241 252 263 262 243 217 189 173 170 163 154 153 157 154 141 140 149 151 145 144 139 148 151 159 170 175 174 182 191 194 190 185 189 173 162 150
260 264 238 226 221 229 239 242 248 250 259 264 256 236 209 176 171 170 162 156 153 140 139 139 136 132 137 135 134 133 144 153 163 173 182 181 179 181 185 176 159 147 132 85
250 259 248 226 220 227 229 237 243 254 258 260 262 246 248 154 156 160 162 156 148 142 140 138 137 133 133 134 138 136 140 152 161 170 172 166 165 165 164 169 158 140 139 137
247 253 254 238 231 235 233 237 236 240 251 263 269 260 25 95 138 145 143 135 128 132 132 134 133 137 135 135 137 140 149 157 161 159 153 152 146 153 161 163 152 147 154 172
254 255 248 235 223 223 235 238 245 242 245 248 255 243 154 95 117 129 128 130 134 127 125 125 128 133 128 131 133 138 147 151 151 145 149 149 151 152 159 164 169 167 176 182
259 249 251 246 243 229 234 240 245 247 245 244 245 240 173 93 82 107 101 124 134 124 125 128 129 127 125 126 130 138 143 144 141 139 144 152 160 162 169 166 169 169 171 172
259 249 254 264 268 265 246 240 237 242 247 253 252 237 215 193 353 73 102 107 126 128 133 135 137 134 137 136 140 144 145 139 133 139 146 147 155 167 166 165 161 163 176 174
241 265 263 261 256 258 256 246 239 242 246 249 254 252 178 114 73 58 64 88 91 117 136 143 147 145 147 149 150 150 153 143 144 153 154 152 158 151 155 160 158 165 171 163
235 247 259 258 254 251 247 244 240 242 249 254 253 251 166 97 86 75 54 89 88 112 118 131 148 150 157 159 154 163 156 150 154 157 158 164 160 152 156 167 156 157 158 165
243 243 250 258 258 247 241 243 248 247 260 262 253 243 195 118 94 73 60 58 60 76 85 95 105 139 149 150 158 165 167 162 162 162 165 177 170 157 155 154 160 163 167 188
225 234 246 255 253 246 251 268 258 242 256 285 253 271 57 96 133 109 67 50 66 74 78 95 105 120 140 152 162 165 171 170 173 175 181 187 174 162 161 155 161 164 183 200
210 215 239 251 256 246 253 276 284 251 232 245 126 114 283 272 235 78 47 46 47 60 66 89 119 127 140 153 159 168 178 184 191 193 191 184 176 170 165 160 176 187 202 209
209 214 230 247 255 255 288 307 290 241 238 359 1 49 0 336 343 51 43 48 50 59 65 79 100 122 135 148 152 169 183 200 207 197 183 166 165 171 170 173 186 197 210 213
222 226 230 239 247 249 314 300 312 28 42 29 43 47 51 48 77 74 56 52 60 55 56 96 112 123 134 158 166 178 192 200 201 188 184 167 177 201 176 171 196 208 212 219
229 233 243 254 258 10 22 29 18 41 41 34 43 49 56 37 84 83 74 59 60 59 45 99 129 137 137 171 173 185 192 188 189 183 185 183 194 204 179 196 213 220 218 229
245 275 267 275 272 324 354 9 353 13 357 332 359 53 332 65 86 78 75 66 57 43 35 88 151 161 162 187 182 195 186 180 181 187 200 206 205 205 201 222 226 222 218 224
288 281 269 264 289 299 285 299 316 343 347 342 302 142 109 115 120 94 90 87 76 44 31 34 204 193 207 204 188 212 203 186 210 213 222 226 218 204 202 213 256 243 211 214
289 295 274 274 315 291 294 310 328 340 324 307 322 71 109 146 137 122 98 88 96 91 71 67 243 225 225 220 207 209 193 184 205 217 229 229 217 203 211 194 176 50 71 84
Height
1481 1483 1481 1476 1473 1473 1470 1470 1469 1464 1460 1465 1471 1474 1473 1473 1475 1478 1481 1484 1488 1493 1496 1498 1502 1504 1507 1509 1511 1513 1516 1517 1519 1520 1521 1523 1524 1525 1526 1525 1526 1526 1525 1526
1478 1479 1473 1469 1468 1469 1470 1472 1469 1463 1458 1463 1470 1472 1471 1470 1472 1474 1478 1482 1485 1490 1494 1496 1499 1502 1505 1507 1509 1512 1514 1516 1517 1519 1520 1522 1523 1524 1525 1525 1525 1525 1525 1525
1474 1470 1467 1468 1468 1471 1471 1472 1470 1467 1461 1461 1468 1476 1470 1466 1469 1472 1475 1479 1482 1486 1491 1494 1497 1500 1503 1505 1507 1510 1512 1514 1516 1518 1519 1521 1522 1523 1524 1524 1524 1524 1524 1524
1468 1465 1464 1467 1468 1468 1473 1465 1466 1466 1470 1472 1470 1485 1472 1465 1466 1468 1473 1476 1479 1483 1487 1491 1495 1498 1501 1503 1506 1508 1510 1512 1514 1516 1518 1519 1520 1521 1523 1523 1523 1524 1524 1524
1465 1463 1464 1466 1465 1464 1466 1461 1463 1465 1469 1474 1470 1479 1472 1462 1466 1466 1469 1473 1476 1481 1485 1489 1492 1496 1499 1502 1504 1506 1509 1511 1513 1514 1516 1518 1519 1521 1522 1523 1523 1523 1523 1523
1460 1458 1459 1461 1460 1461 1462 1464 1464 1464 1470 1486 1475 1478 1475 1461 1461 1462 1466 1471 1475 1479 1483 1487 1491 1494 1497 1500 1503 1505 1507 1509 1511 1513 1515 1516 1518 1519 1521 1521 1521 1522 1522 1522
1463 1458 1456 1458 1462 1461 1464 1475 1487 1489 1490 1484 1466 1471 1469 1455 1454 1459 1464 1469 1474 1478 1482 1486 1490 1493 1496 1498 1501 1503 1505 1507 1509 1511 1513 1514 1516 1518 1519 1520 1520 1520 1521 1521
1467 1466 1456 1457 1461 1464 1465 1471 1489 1497 1490 1478 1465 1470 1462 1453 1456 1459 1463 1468 1473 1478 1481 1484 1488 1491 1494 1497 1499 1502 1504 1506 1508 1509 1511 1513 1515 1516 1517 1518 1519 1519 1519 1520
1462 1463 1451 1452 1455 1459 1465 1466 1463 1473 1473 1479 1469 1462 1456 1453 1457 1460 1463 1468 1472 1476 1480 1484 1488 1491 1493 1496 1498 1501 1502 1504 1506 1508 1509 1511 1513 1515 1516 1517 1517 1518 1518 1519
1455 1463 1452 1450 1453 1455 1457 1458 1464 1472 1486 1487 1474 1468 1464 1457 1458 1460 1463 1467 1471 1475 1480 1484 1487 1490 1493 1495 1497 1500 1502 1503 1505 1506 1508 1510 1511 1512 1514 1515 1515 1516 1517 1517
1453 1464 1458 1453 1456 1459 1460 1461 1463 1466 1469 1482 1485 1478 1455 1456 1457 1460 1464 1467 1470 1475 1480 1484 1487 1489 1492 1494 1497 1499 1501 1502 1504 1505 1507 1508 1509 1510 1512 1513 1514 1514 1515 1516
1454 1459 1464 1456 1450 1450 1454 1458 1462 1476 1477 1473 1479 1479 1456 1455 1456 1460 1463 1467 1471 1475 1479 1483 1487 1490 1492 1494 1496 1498 1500 1501 1502 1504 1505 1506 1507 1508 1510 1511 1512 1513 1513 1514
1459 1464 1473 1468 1461 1455 1456 1455 1456 1460 1466 1473 1480 1478 1458 1458 1460 1462 1465 1468 1472 1476 1480 1483 1487 1490 1492 1494 1496 1497 1499 1500 1501 1502 1503 1504 1505 1506 1508 1509 1510 1511 1512 1512
1461 1464 1470 1473 1465 1458 1461 1458 1457 1461 1468 1471 1471 1470 1463 1462 1464 1465 1467 1469 1472 1476 1480 1483 1487 1489 1492 1494 1495 1497 1499 1500 1501 1501 1502 1503 1503 1505 1506 1507 1509 1510 1510 1511
1462 1465 1463 1459 1456 1455 1457 1458 1457 1461 1462 1467 1466 1466 1464 1464 1466 1467 1469 1471 1473 1477 1480 1484 1486 1489 1491 1493 1495 1497 1498 1499 1500 1501 1501 1501 1502 1503 1504 1506 1507 1508 1509 1510
1464 1467 1465 1463 1456 1455 1457 1454 1455 1457 1457 1459 1461 1465 1461 1464 1467 1469 1471 1473 1475 1478 1481 1483 1486 1488 1491 1492 1494 1496 1497 1498 1499 1500 1500 1500 1500 1501 1503 1505 1506 1507 1508 1508
1465 1470 1472 1467 1457 1457 1463 1455 1454 1455 1454 1457 1463 1465 1462 1466 1468 1471 1473 1475 1477 1478 1481 1483 1485 1487 1490 1491 1493 1494 1496 1497 1498 1499 1499 1500 1500 1501 1502 1504 1504 1505 1506 1507
1468 1470 1471 1468 1465 1475 1458 1448 1450 1454 1456 1456 1458 1461 1463 1467 1470 1472 1475 1476 1478 1479 1481 1483 1485 1487 1489 1490 1492 1494 1495 1496 1497 1498 1498 1499 1499 1500 1501 1502 1503 1504 1505 1505
1464 1469 1472 1471 1471 1466 1457 1452 1453 1457 1461 1458 1459 1462 1465 1468 1470 1473 1476 1477 1478 1480 1481 1483 1484 1486 1488 1489 1491 1492 1494 1495 1496 1497 1498 1498 1499 1499 1500 1501 1501 1502 1503 1504
1461 1465 1472 1472 1475 1476 1465 1455 1454 1457 1464 1460 1461 1463 1466 1468 1471 1475 1476 1477 1478 1479 1481 1483 1484 1486 1487 1488 1489 1491 1492 1494 1495 1496 1496 1497 1498 1499 1499 1499 1500 1501 1502 1502
1465 1467 1471 1472 1473 1469 1459 1457 1457 1467 1468 1463 1463 1465 1467 1470 1473 1476 1477 1478 1479 1480 1481 1483 1484 1485 1486 1487 1488 1489 1490 1492 1493 1494 1495 1495 1496 1497 1497 1498 1498 1499 1500 1501
1465 1468 1469 1470 1474 1474 1461 1460 1464 1468 1466 1466 1466 1468 1470 1472 1474 1475 1477 1478 1479 1480 1481 1482 1483 1484 1485 1486 1487 1487 1489 1490 1491 1492 1493 1493 1494 1495 1496 1496 1496 1497 1498 1499
1462 1465 1466 1469 1471 1467 1465 1465 1467 1467 1468 1468 1469 1470 1471 1473 1474 1475 1477 1478 1479 1480 1482 1482 1482 1483 1484 1485 1486 1486 1488 1489 1490 1491 1491 1492 1493 1494 1494 1495 1495 1495 1496 1497
1461 1462 1464 1466 1465 1467 1467 1467 1468 1468 1469 1470 1470 1471 1472 1473 1474 1475 1477 1478 1479 1480 1481 1481 1481 1482 1482 1483 1484 1485 1486 1487 1488 1489 1490 1491 1492 1492 1492 1493 1493 1494 1494 1494
1463 1463 1465 1467 1468 1468 1468 1468 1468 1468 1468 1468 1470 1470 1471 1473 1474 1475 1476 1477 1478 1478 1479 1479 1480 1480 1481 1482 1482 1483 1484 1485 1486 1487 1488 1489 1490 1490 1490 1491 1491 1491 1492 1492
1465 1466 1468 1469 1469 1470 1469 1469 1469 1468 1468 1468 1469 1469 1470 1472 1473 1474 1474 1475 1476 1477 1477 1478 1478 1479 1479 1480 1481 1482 1482 1483 1484 1485 1486 1487 1487 1488 1488 1489 1489 1489 1490 1490